Location: Maignaut
(43.8886°N, 0.4051°E)
Time: 00:10:26
(UTC+00:00)

Gbstr 26 Del rocket - Pass Details

Date: 27 February 2020
Orbit: 493 x 1264 km, 51.8° (Epoch: 04 April)

Event Time Altitude Azimuth Distance (km) Brightness Sun altitude
Rises 18:52:32 0° 246° (WSW) 2,621 7.6 -13.2°
Reaches altitude 10° 18:54:36 10° 249° (WSW) 1,785 6.6 -13.6°
Maximum altitude 18:58:34 67° 332° (NNW) 644 3.2 -14.3°
Enters shadow 19:02:08 17° 53° (NE) 1,657 4.8 -14.9°
